Back to catalog

SCOUT B DEB

LostUNKNOWN
NORAD 29174·DEBRIS·🇺🇸 United States

Launched Aug 10, 1965 from Wallops Flight Facility

Loading…

Next Passes (next 24 hours)

TLE

StaleSource: Space-Track

Epoch: Jul 23, 2025, 21:00 UTC

1 29174U 65063Y   25204.87547565  .00000036  00000-0  46677-3 0  9995
2 29174  69.2717 283.5078 0662078 107.2191 260.2334 11.96491823 30580

Track SCOUT B DEB in real time with AllMySat

Download on the App Store